Orbital Elements at Epoch 2459200.5 (2020-Dec-17.0) TDB
Reference: JPL 20 (heliocentric ecliptic J2000)
Element | Value | Uncertainty (1-sigma) | Units |
e | .0848389987667339 | 4.1864e-08 | |
a | 2.374952295137463 | 1.3784e-08 | au |
q | 2.173463720299244 | 1.0479e-07 | au |
i | 11.89236738823871 | 4.5975e-06 | deg |
node | 138.7271005976545 | 2.2786e-05 | deg |
peri | 17.66884843367389 | 3.8304e-05 | deg |
M | 279.1885414026257 | 3.2052e-05 | deg |
tp | 2459500.589781613184 (2021-Oct-13.08978161) | 0.00012018 | TDB |
period | 1336.84409681298 3.66 | 1.1639e-05 3.187e-08 | d yr |
n | .2692909374086594 | 2.3445e-09 | deg/d |
Q | 2.576440869975682 | 1.4954e-08 | au |
|
| | Orbit Determination Parameters
Additional Information
|